RH
47 52 71 82 90 89 84 84 84 71 63 69 56 51 63 55 60 68 68 75 66 61 60 54 49 46 46 43 45 54 58 54 56 59 67 84 79 73 85 86 81 83 84 81 78 74 73 73 73 69 63 59 58 57 55 53 52 50 44 45 49 48 45 50 54 53 55 59 62 66 72 78 78 78 79 79 79 78 79 79 80 81 82 76 66 63 70 76 73 72 75 73 72 75 76 79 79
77 86 84 83 88 88 80 80 89 79 71 75 58 51 62 56 60 65 64 68 60 61 58 50 48 50 50 46 48 51 61 66 65 68 74 85 83 83 85 79 82 84 82 80 78 75 71 65 61 54 44 38 36 34 34 34 36 35 33 35 37 35 38 48 54 57 61 62 65 69 72 77 78 78 78 79 78 78 78 78 79 80 80 76 66 67 75 76 75 77 78 77 77 78 78 78 78
99 92 81 85 90 93 88 83 84 74 68 70 60 50 56 58 57 60 62 62 60 59 51 48 49 51 48 44 53 51 60 69 67 73 79 85 83 84 83 80 84 81 80 79 76 75 70 60 53 48 42 41 39 37 38 39 43 44 44 45 46 47 50 58 63 66 67 67 69 69 69 72 73 75 78 78 77 78 79 77 78 79 79 76 70 72 76 76 78 81 81 81 81 80 80 78 77
98 79 79 88 85 90 90 82 72 61 60 61 66 59 55 58 56 60 65 63 58 52 48 49 50 53 47 44 55 51 59 67 66 76 80 84 81 82 84 80 81 81 81 80 79 76 67 57 52 53 53 55 56 55 55 57 61 59 58 62 65 66 68 69 70 72 71 70 70 69 68 69 70 76 80 78 76 79 80 79 79 80 79 76 72 74 76 74 76 78 79 79 78 79 79 77 76
90 75 86 91 83 86 85 76 61 53 59 61 67 62 56 57 58 64 64 60 53 48 49 49 53 60 55 55 60 53 62 66 65 76 78 82 84 87 88 83 84 85 84 82 82 73 62 57 59 64 63 66 68 69 69 70 68 63 64 68 71 73 74 73 71 72 71 69 70 69 68 68 69 75 79 77 77 80 81 79 80 80 78 76 73 74 75 73 73 74 74 74 73 75 75 76 75
89 84 93 94 90 91 87 72 56 48 51 53 53 53 56 56 57 62 59 56 51 48 49 48 53 59 58 64 66 62 69 66 63 72 76 83 89 87 86 87 88 87 84 83 81 68 59 60 68 72 70 72 75 76 76 76 70 66 68 68 72 72 72 72 71 71 69 67 68 67 66 66 68 74 77 77 78 81 81 81 81 79 78 76 73 74 76 73 73 73 72 72 73 74 74 74 74
90 88 89 90 92 96 91 68 50 46 48 50 49 51 54 54 57 57 55 54 50 47 48 49 52 54 59 64 63 69 77 71 65 70 75 84 92 89 86 89 88 86 83 86 83 64 57 65 73 73 72 74 77 78 76 76 71 69 70 68 70 70 70 70 70 71 68 66 67 67 66 68 72 76 78 78 79 79 80 81 81 79 78 76 71 73 77 74 74 74 74 75 75 75 75 74 75
87 85 81 85 90 89 83 60 44 46 49 52 51 54 54 55 58 54 53 54 49 46 49 51 50 55 61 61 63 74 80 73 68 72 80 86 91 89 88 89 85 85 85 89 79 58 60 69 73 73 73 75 76 75 75 76 71 69 70 68 67 67 71 71 68 70 68 67 68 70 71 75 78 80 80 78 79 79 78 79 81 78 78 78 70 70 77 77 75 76 78 78 76 75 74 73 74
85 92 87 85 83 70 61 48 42 45 47 50 52 56 58 60 58 53 52 51 51 48 50 50 47 59 65 65 71 78 77 72 73 78 83 87 90 89 89 87 83 85 87 86 69 56 67 70 71 73 72 74 75 74 75 77 74 70 69 68 67 68 72 71 69 69 70 71 73 75 77 79 81 81 81 78 78 78 76 77 80 78 78 79 72 68 74 75 73 76 79 78 75 72 72 73 73
89 96 92 84 72 56 47 41 41 44 47 49 51 57 60 60 57 54 52 50 53 50 50 49 48 62 66 68 76 78 77 74 77 82 85 88 90 89 88 84 83 85 86 84 68 61 71 69 69 70 69 72 73 74 75 77 77 73 71 71 70 71 72 72 71 71 73 75 76 78 78 78 78 80 81 79 79 80 77 76 78 78 77 78 73 67 68 72 73 75 76 77 76 73 74 75 74
91 92 94 84 62 51 46 41 41 43 47 48 51 59 60 59 58 54 52 51 52 51 50 50 53 63 65 72 80 81 80 76 77 81 86 89 88 87 85 83 83 82 83 84 73 67 71 69 69 69 69 72 73 74 73 74 75 73 74 76 74 72 72 72 72 72 74 74 75 76 76 78 77 77 77 77 81 83 80 78 77 76 77 76 73 68 68 72 75 74 75 77 74 72 73 75 74
84 75 85 78 53 49 46 42 43 43 47 49 53 60 58 58 59 55 51 49 50 52 52 53 56 59 61 71 82 83 79 74 77 83 88 89 86 86 84 82 82 81 81 83 77 70 69 70 70 70 70 73 73 73 71 70 72 71 73 75 75 75 74 72 71 73 73 74 74 74 75 77 76 74 74 75 78 80 81 80 78 76 76 76 74 71 70 73 74 72 71 70 69 69 71 74 72
80 65 69 63 47 48 46 42 42 43 47 49 54 57 57 56 55 54 49 46 50 51 51 56 56 55 60 71 82 83 75 74 81 85 88 87 84 85 83 82 82 81 80 83 81 70 66 68 70 72 70 72 73 69 69 69 70 71 71 72 74 75 75 73 72 73 73 74 74 74 75 74 73 72 70 72 73 76 79 80 78 77 76 76 75 73 72 71 68 66 63 60 62 65 66 68 68
83 70 63 56 48 47 44 43 39 43 48 47 54 58 56 54 52 52 47 45 49 50 53 59 56 57 67 75 80 79 72 75 82 87 89 86 85 85 83 82 81 81 80 82 80 69 68 72 71 72 70 71 71 68 69 71 71 72 72 73 73 73 73 72 72 73 73 73 73 74 75 73 71 69 68 68 70 72 76 78 78 78 77 76 75 74 74 72 68 65 64 61 61 64 65 69 72
84 72 63 55 49 46 42 43 36 41 53 49 55 61 58 59 56 52 48 45 49 54 56 59 57 58 64 67 71 72 71 75 81 88 90 87 88 88 85 83 81 81 80 80 76 70 76 80 73 70 70 69 71 72 73 73 73 74 74 74 74 74 72 71 72 72 71 71 71 71 72 71 67 64 64 64 65 67 70 73 74 76 76 76 76 76 76 75 75 75 75 74 73 75 75 75 76
85 76 71 58 48 46 40 39 34 42 55 51 58 65 60 62 59 56 58 53 53 58 56 56 58 56 56 59 64 68 73 76 80 89 90 88 90 90 88 84 81 81 80 80 79 75 79 82 75 71 69 68 72 75 74 74 75 75 75 74 75 77 75 72 71 70 69 67 67 70 73 72 68 65 63 63 63 63 64 66 70 73 75 76 77 80 81 79 80 83 83 82 83 82 79 76 74
85 84 83 62 46 46 40 37 35 42 50 51 60 64 57 58 60 62 66 60 55 56 55 55 57 57 55 58 64 69 75 76 81 90 91 90 90 90 89 85 82 82 80 79 79 80 79 77 74 71 69 72 76 76 75 76 75 75 74 72 74 77 76 72 69 69 68 66 68 70 74 76 77 73 69 70 68 65 64 64 67 69 72 75 77 81 83 81 81 82 81 80 82 80 78 77 74
81 76 74 55 43 45 41 37 36 37 42 48 57 56 51 53 58 61 63 60 57 55 56 57 59 61 61 64 67 72 78 77 81 89 88 87 86 85 85 84 80 78 79 77 75 78 74 70 73 73 73 76 77 77 78 75 75 75 72 70 71 72 73 70 70 71 66 65 69 71 76 80 80 76 73 75 73 71 73 72 71 67 67 69 71 76 79 79 79 77 76 76 76 76 80 81 75
72 61 58 47 43 44 41 39 39 37 38 45 52 52 49 49 55 58 56 56 56 53 55 60 61 63 65 67 69 74 79 77 78 83 83 82 81 81 82 81 77 76 78 75 73 75 68 67 74 74 74 75 76 79 77 74 75 74 70 71 71 70 71 70 72 71 63 62 65 69 76 78 75 72 72 72 71 72 73 74 75 71 65 62 64 69 73 75 74 72 71 72 73 78 90 92 83
64 57 51 45 43 43 42 41 41 40 38 41 48 51 47 48 53 54 51 51 51 49 52 58 58 60 65 67 70 76 78 76 76 76 76 76 77 77 78 78 75 76 77 74 75 74 68 66 71 70 68 71 77 80 77 74 74 70 68 70 71 71 71 71 71 66 62 60 59 65 72 72 73 72 73 76 79 82 77 73 76 76 71 68 70 74 73 71 72 72 70 74 77 85 96 96 91
55 55 48 45 43 42 44 42 41 41 40 41 46 49 46 49 53 51 49 48 48 48 50 53 55 61 66 68 72 78 77 75 74 71 70 72 73 74 75 77 75 76 77 77 77 73 66 63 66 66 62 69 75 79 82 75 71 70 68 69 70 69 67 67 66 63 59 56 60 67 65 66 74 76 83 92 95 97 94 88 86 82 76 71 77 87 82 77 82 80 75 80 83 86 91 92 93
50 50 45 45 43 43 46 45 45 44 43 43 44 47 46 49 51 49 48 45 42 44 49 52 56 63 66 69 73 77 77 74 71 69 69 70 73 74 73 75 75 78 80 81 79 68 62 63 67 67 61 68 73 81 88 75 71 73 65 64 66 63 62 60 59 58 55 55 65 69 64 67 78 79 83 93 96 99 100 98 95 88 84 81 86 90 80 81 89 85 83 86 86 84 81 80 85
47 44 42 46 44 45 46 46 48 47 44 42 42 45 46 48 48 48 47 43 42 44 50 53 58 65 66 68 71 75 75 72 70 68 68 69 72 73 71 73 75 81 83 82 79 65 61 66 67 69 64 65 72 80 82 73 73 72 59 57 62 61 57 58 61 54 48 51 56 63 74 78 83 83 78 81 91 99 98 97 97 94 94 91 91 89 79 86 90 84 84 84 85 86 80 74 75
45 39 39 46 44 46 45 45 47 44 44 42 43 44 44 45 44 47 47 44 46 47 51 55 61 65 66 68 68 71 72 70 68 66 67 67 69 70 70 73 76 84 85 81 80 63 58 66 61 66 69 64 70 74 75 76 74 68 54 52 60 57 54 65 70 55 45 47 45 55 78 85 82 84 82 83 90 95 93 92 93 96 96 88 87 91 87 90 90 85 83 79 85 89 85 82 81
39 35 37 43 42 45 44 44 44 40 41 41 42 41 41 42 41 44 45 45 48 51 54 57 62 65 65 67 66 66 68 67 66 65 66 66 67 69 71 73 76 86 86 83 85 66 59 67 56 61 69 64 69 72 74 77 72 66 54 53 57 49 57 70 63 52 47 46 45 50 71 87 86 83 86 91 90 86 87 92 96 97 98 92 90 94 91 90 91 88 86 83 86 88 87 85 83
32 31 31 37 39 41 41 41 40 38 38 39 39 37 38 40 41 40 41 45 49 54 58 59 62 64 65 66 65 64 64 64 64 64 65 67 68 70 72 72 75 84 85 85 87 73 65 68 61 62 67 65 69 72 75 73 64 59 47 50 53 44 55 58 50 59 58 52 53 53 62 79 89 89 84 86 89 84 86 94 99 97 97 97 95 95 94 93 92 89 89 90 88 89 88 84 83
29 32 29 32 35 37 40 39 38 37 36 38 36 33 34 37 40 37 38 44 50 57 58 60 62 63 64 64 64 64 62 61 61 63 64 69 70 71 73 73 76 80 84 85 84 78 65 64 65 64 64 59 63 69 71 64 54 50 42 44 46 42 50 45 49 70 73 69 63 58 61 65 85 99 84 82 92 91 91 95 97 98 96 97 96 95 96 96 97 91 88 88 85 87 87 83 84
27 32 30 28 29 32 36 36 36 36 33 35 33 30 30 35 40 34 37 45 50 57 58 60 61 61 64 63 64 65 63 61 62 64 64 69 72 72 73 73 75 76 81 82 83 81 66 65 66 59 60 51 51 65 65 58 54 49 44 44 44 42 45 41 49 67 74 75 63 61 67 63 78 89 76 84 99 96 95 95 95 98 94 96 99 95 95 96 97 88 76 76 74 77 84 83 81
23 27 27 25 26 28 30 30 32 32 31 32 30 32 32 36 41 34 39 48 51 55 57 60 60 62 65 63 64 65 63 61 62 64 63 67 70 69 71 73 75 75 78 78 82 82 67 70 65 53 59 44 42 67 65 61 68 59 48 51 51 42 40 42 52 65 68 65 59 63 70 67 73 77 73 84 100 98 97 96 94 96 95 98 97 88 90 94 95 87 78 78 76 76 84 85 81
19 18 21 23 24 26 26 26 28 29 30 30 30 39 40 36 36 34 42 51 51 54 57 59 60 62 64 63 64 65 63 60 61 64 64 67 68 68 70 72 75 75 78 78 82 83 70 70 63 50 50 34 36 67 71 70 80 70 54 59 60 46 43 46 55 63 60 60 62 62 69 73 72 76 76 80 95 97 95 96 93 95 96 96 95 87 92 97 93 91 86 84 83 81 82 87 87
18 15 18 20 23 24 23 24 27 28 29 29 29 39 42 33 31 35 44 51 50 52 55 57 59 61 63 64 64 64 62 59 60 63 65 68 69 70 72 73 75 76 79 80 82 82 70 61 56 47 37 27 32 51 63 72 79 67 53 58 57 47 48 55 66 70 63 66 70 64 68 75 72 76 77 78 93 99 93 93 93 94 90 93 98 91 93 99 94 94 93 89 87 84 82 86 89
17 18 18 18 21 21 22 23 25 27 27 28 30 35 34 27 29 37 46 50 47 49 53 55 59 60 60 62 63 63 61 61 61 63 65 67 68 69 71 73 76 77 79 82 83 81 66 45 41 43 31 26 32 33 42 59 67 60 48 48 47 46 52 59 74 82 76 74 79 75 70 73 74 76 78 78 91 101 95 91 93 91 86 93 94 86 92 98 95 94 93 91 88 86 84 83 89
15 18 17 16 17 19 22 24 24 25 26 26 31 36 32 25 30 40 48 49 44 45 50 54 58 58 57 58 60 61 61 61 62 63 64 66 68 68 69 73 77 80 80 83 86 78 61 36 31 44 35 25 31 30 31 41 48 49 42 39 41 46 54 62 71 79 83 80 82 84 75 73 76 74 80 81 88 101 97 93 93 84 84 92 85 86 97 96 94 95 93 94 93 93 89 82 86
14 15 15 14 14 16 20 24 24 24 26 26 29 33 33 27 28 38 47 48 42 41 47 51 57 58 57 57 58 59 58 60 62 62 61 64 69 68 69 74 76 81 82 85 85 66 49 34 26 39 36 25 28 29 30 32 33 38 38 39 42 43 51 68 73 70 76 80 81 79 72 75 77 75 81 81 85 97 98 97 95 82 81 83 82 92 98 94 96 98 97 94 91 94 93 88 89
12 13 15 13 13 15 17 22 24 23 25 27 28 32 36 31 28 38 50 48 39 38 44 49 54 58 58 56 56 58 57 59 62 63 60 62 67 67 69 74 75 82 83 86 85 61 45 37 25 29 32 26 28 28 29 31 30 32 36 39 44 44 50 66 74 71 70 78 81 72 67 75 77 76 81 79 81 92 98 100 91 81 79 75 81 96 96 94 91 90 96 89 79 82 83 83 87
11 11 13 12 13 16 15 19 22 23 25 27 27 31 36 33 28 37 47 43 36 37 41 47 53 56 57 56 55 58 60 60 62 65 64 63 67 67 69 75 77 81 83 87 85 64 47 36 24 25 28 26 28 28 28 30 30 31 33 36 39 42 47 54 62 68 69 75 79 67 64 73 74 74 78 78 76 81 93 96 85 80 84 78 79 93 99 96 84 78 85 83 79 78 74 74 76
15 13 13 13 13 15 14 15 19 20 25 26 25 28 31 32 27 30 40 39 33 35 39 45 52 54 56 56 54 57 61 61 63 67 67 67 69 70 71 76 79 81 84 85 79 65 49 34 24 24 26 26 27 27 28 29 30 30 30 32 39 42 43 45 50 59 69 75 69 59 62 68 70 72 72 73 71 70 75 80 75 76 88 86 78 89 95 86 76 77 84 90 92 79 72 76 72
16 14 15 15 14 14 12 13 17 18 23 25 24 25 27 28 27 27 35 37 32 32 37 44 49 51 54 55 54 57 60 61 64 68 69 69 71 73 74 76 79 81 83 83 77 66 51 39 31 24 24 26 26 26 28 28 28 29 28 30 43 52 44 41 51 58 66 73 60 50 57 61 64 67 66 67 66 64 62 64 65 65 78 83 76 82 85 75 73 79 88 96 96 80 74 79 74
14 13 14 15 13 14 12 13 16 17 22 24 23 25 24 23 24 22 25 30 31 32 35 41 47 49 52 54 55 57 60 62 64 67 70 71 71 73 76 77 80 80 83 85 80 66 51 45 41 31 25 25 25 26 26 27 27 27 29 30 41 58 57 49 57 62 61 69 64 52 52 55 60 62 61 63 60 60 59 59 63 61 65 71 72 80 82 79 79 81 89 94 93 86 81 83 79
13 10 10 13 12 14 15 14 17 17 19 22 23 24 23 21 22 20 20 25 30 32 33 37 44 47 49 53 55 57 60 63 64 66 69 71 73 74 76 80 81 81 84 86 76 61 50 48 46 39 31 25 24 26 25 26 27 26 29 29 32 53 65 51 46 50 47 55 66 63 53 52 60 60 58 62 59 59 58 56 62 62 60 62 64 71 77 85 89 88 92 92 90 89 85 87 88
10 7 7 11 12 14 15 15 16 16 16 19 21 26 26 22 23 21 19 23 27 29 31 35 40 44 48 50 54 57 60 63 64 65 68 70 73 74 77 81 82 81 84 83 72 61 53 49 49 46 39 30 24 24 25 25 26 26 27 29 28 38 48 37 28 33 34 39 56 68 60 52 59 58 55 59 58 59 59 57 60 60 60 62 60 64 74 86 93 94 93 90 90 89 87 89 92
9 8 7 9 12 14 16 16 17 19 19 17 20 31 31 23 23 22 19 22 26 26 29 34 39 44 47 49 52 55 58 62 64 64 66 68 71 74 78 81 81 79 81 80 72 65 56 50 49 50 46 38 29 23 24 25 25 26 26 28 28 28 30 27 24 26 31 35 47 69 71 55 53 55 52 55 55 56 59 58 58 59 59 60 59 62 69 75 81 92 94 90 93 91 85 86 89
10 9 7 8 11 15 18 17 18 22 22 16 16 28 31 24 23 22 20 23 26 27 29 33 38 43 46 48 50 53 56 60 63 63 64 66 68 71 74 77 77 76 79 79 75 71 62 51 49 51 50 46 37 28 24 24 25 25 25 26 27 27 25 24 25 25 32 40 44 64 78 62 48 50 52 51 51 54 58 58 58 60 61 59 57 56 61 74 87 97 94 88 92 87 80 86 91
10 7 7 8 7 12 17 18 19 19 18 16 15 20 27 27 24 21 20 22 25 28 30 32 37 42 45 46 48 52 54 57 61 62 63 64 66 68 70 72 73 74 77 78 78 78 71 57 51 53 52 49 44 37 29 25 24 24 25 25 25 26 25 23 24 24 30 38 38 50 67 61 48 46 47 45 47 51 56 59 58 59 61 59 58 53 55 74 88 87 80 76 80 78 77 86 90
9 7 9 10 8 8 11 14 17 17 18 23 19 18 27 28 22 19 20 21 25 28 28 31 35 39 44 45 45 49 53 55 58 60 62 63 65 67 69 70 72 74 75 79 80 81 76 61 52 53 52 51 48 44 38 30 27 24 23 25 24 24 25 24 26 25 26 32 34 37 44 47 45 43 42 41 44 49 52 58 59 56 57 58 57 56 55 63 70 70 71 72 75 80 85 85 83
9 9 11 12 10 8 7 10 14 17 23 27 21 18 26 27 21 19 21 23 26 25 24 28 32 35 41 43 44 46 50 54 57 58 60 63 64 66 67 68 71 73 74 80 83 83 78 60 51 54 52 51 52 49 46 39 33 30 25 24 23 23 24 25 28 27 26 29 33 35 34 35 40 43 44 42 41 45 50 56 60 56 56 58 57 57 55 54 57 59 66 73 77 80 85 86 84
8 9 11 12 11 9 9 9 11 18 25 25 20 17 22 27 22 18 19 21 22 21 21 25 29 32 38 42 42 43 48 53 55 57 59 62 64 66 67 68 70 73 75 82 85 85 79 61 51 55 54 56 57 54 52 46 39 35 30 28 25 25 25 24 26 26 24 27 30 35 36 33 37 43 50 51 44 43 47 52 59 57 54 55 56 56 53 56 63 64 63 66 72 74 78 86 89
10 9 11 13 13 13 14 12 12 19 23 20 17 15 19 27 24 17 16 17 17 17 18 22 25 28 35 40 41 41 45 50 54 56 58 61 64 66 68 69 71 75 77 80 83 85 81 63 52 55 58 60 62 60 58 54 48 41 34 32 29 28 28 25 25 24 24 25 26 31 35 35 36 39 47 54 50 47 47 48 54 55 51 48 51 54 53 57 69 76 69 61 65 73 75 79 84
11 11 13 15 17 22 24 20 17 19 19 15 13 15 19 23 21 16 15 15 15 16 15 17 20 24 31 37 40 40 42 47 51 55 57 60 64 66 67 69 73 77 78 78 80 83 80 63 51 54 58 60 62 62 61 58 55 49 39 35 33 32 32 28 26 25 25 26 25 28 31 33 36 36 38 45 48 50 48 45 49 50 49 49 51 52 52 53 59 66 64 55 58 67 70 73 77
12 12 15 16 18 29 33 24 21 21 17 12 11 14 18 18 15 14 15 14 15 16 15 15 16 20 27 33 37 39 40 44 48 52 55 58 63 66 66 69 73 76 77 78 79 81 78 63 50 52 55 57 59 59 59 57 55 51 43 37 35 35 35 33 30 28 27 28 27 27 27 29 34 35 35 37 40 48 47 43 50 53 51 54 56 55 56 57 57 58 57 55 57 60 63 68 70
13 11 13 15 15 25 31 23 21 21 17 14 13 14 17 17 13 12 12 12 14 15 16 15 16 18 22 28 33 36 38 41 46 50 53 56 61 65 66 68 72 75 75 76 77 79 77 63 49 50 54 55 58 59 58 55 52 49 43 38 36 35 35 34 33 32 32 30 29 30 28 27 31 34 35 35 36 41 42 42 52 58 54 55 58 58 59 59 57 57 59 60 56 52 56 62 65
13 10 12 15 12 16 22 19 17 17 17 16 15 15 15 13 12 11 11 11 11 14 15 15 16 17 19 23 27 31 35 38 43 48 51 55 60 63 65 67 69 74 75 74 75 76 72 61 49 49 53 54 56 58 58 56 55 54 46 40 40 38 38 38 37 35 33 32 31 33 31 27 30 33 33 34 35 36 39 41 49 55 53 55 58 59 61 59 54 54 59 62 55 47 50 56 60
14 13 14 14 10 11 17 17 14 17 22 20 17 17 15 11 11 11 11 12 11 12 13 13 14 15 17 20 23 26 31 36 40 45 49 53 58 62 64 65 67 71 72 72 73 70 65 57 49 48 53 55 55 57 58 58 60 60 53 47 46 43 42 42 40 37 33 33 33 35 34 31 32 35 35 35 36 36 38 41 45 48 48 52 56 56 58 58 54 53 56 58 53 45 45 53 58
15 16 14 11 11 12 15 19 18 19 24 21 15 16 16 14 14 11 10 11 11 11 12 11 12 13 15 17 19 22 26 32 38 42 47 51 55 60 62 63 64 67 68 69 69 68 64 56 48 47 50 53 55 56 57 58 59 60 58 54 50 46 43 43 42 40 36 36 36 35 36 36 36 38 39 40 39 36 37 40 43 45 44 48 53 54 56 56 55 56 54 52 51 46 43 50 54
15 15 13 13 17 18 19 23 25 24 24 21 16 13 13 13 13 10 9 9 8 10 10 10 11 12 14 15 18 21 23 29 35 40 45 49 52 57 60 61 61 64 67 69 68 67 65 56 46 45 48 50 53 55 57 58 59 60 60 57 53 49 47 44 43 43 41 39 39 37 37 38 40 41 41 41 40 36 35 38 42 44 43 45 48 51 53 54 55 57 53 51 54 50 43 45 47
15 16 15 14 16 19 20 22 24 24 24 23 19 16 14 13 10 9 10 9 7 8 9 9 9 10 13 15 17 20 23 27 33 38 42 47 50 53 56 58 58 60 66 69 69 68 65 58 48 45 47 47 50 54 55 56 57 59 60 59 57 55 52 48 47 47 46 43 41 41 41 41 42 43 43 42 39 36 35 36 38 42 43 43 44 45 47 51 55 56 53 55 59 53 46 45 42
17 19 20 19 17 16 17 19 19 20 24 25 23 20 16 12 9 7 9 10 9 9 9 9 9 9 11 14 16 18 23 28 31 35 40 45 48 49 52 55 55 58 63 66 67 67 67 66 59 50 48 46 47 50 51 53 55 56 58 59 58 58 56 54 53 53 51 49 47 46 45 45 45 44 43 42 38 35 35 34 36 40 43 43 43 43 42 47 53 52 49 52 53 48 47 47 42
18 18 19 19 17 18 21 22 19 17 21 22 23 23 17 10 10 8 7 9 9 9 10 9 10 10 10 13 15 16 22 29 32 34 38 41 45 47 48 53 53 55 60 63 63 65 66 69 67 60 57 55 51 49 47 49 51 53 55 57 57 58 58 58 58 58 56 54 52 49 48 47 46 44 42 40 39 36 34 34 34 37 41 41 42 42 42 46 50 48 43 43 44 41 43 47 43
Wind_Speed
11 12 12 9 10 8 7 6 4 3 4 4 3 1 2 2 4 5 6 5 5 7 6 9 15 12 6 5 8 9 10 6 4 3 6 13 26 28 22 23 23 22 20 19 18 17 18 18 18 18 17 16 15 15 15 14 13 13 12 12 13 13 12 12 11 11 11 10 11 12 12 12 11 11 11 11 10 9 9 9 10 11 11 11 10 8 9 9 9 10 11 11 12 12 12 13 12
10 10 11 9 10 8 6 6 3 2 4 5 2 3 4 4 4 5 6 6 6 9 10 14 15 9 5 7 9 7 11 12 10 13 16 23 28 24 23 24 24 23 21 19 18 17 16 16 17 16 15 14 13 13 12 12 11 10 10 10 10 10 10 11 11 11 11 10 11 11 11 11 11 11 10 10 9 9 9 9 10 10 11 11 10 9 9 10 10 11 12 12 12 12 12 12 12
10 11 12 10 9 6 3 5 4 3 5 3 3 6 5 4 4 6 7 6 9 13 14 16 14 8 7 11 6 4 8 11 14 21 23 26 26 25 26 26 24 23 21 20 19 18 16 16 16 15 14 13 12 12 12 11 11 10 10 9 9 10 11 12 11 11 11 10 11 11 11 11 11 10 10 9 8 8 8 9 9 10 11 12 11 9 10 11 11 12 13 13 13 13 12 12 12
10 12 13 10 8 4 2 4 3 4 4 1 3 6 4 4 6 8 8 8 13 16 17 16 11 5 6 10 6 7 10 10 14 20 25 23 23 28 27 27 26 23 22 20 19 19 17 17 16 15 14 13 13 14 14 13 12 11 11 11 11 12 12 12 12 12 12 12 12 11 11 11 10 9 9 8 8 8 8 9 9 10 11 12 11 10 11 11 11 12 12 12 12 12 12 12 12
10 11 10 7 5 2 2 3 3 5 2 3 1 5 5 6 8 9 10 12 15 16 17 14 10 6 7 8 4 7 12 13 15 18 23 21 23 29 28 27 25 23 22 20 20 19 18 17 17 16 16 15 15 16 16 15 14 13 13 13 13 13 13 13 12 12 12 12 11 10 10 10 10 9 9 8 8 8 8 9 9 10 11 12 11 11 11 11 11 11 11 12 12 12 12 12 12
11 10 7 6 4 2 3 4 3 4 3 4 2 6 6 7 10 10 12 14 14 16 15 12 12 10 10 9 8 10 10 12 17 18 21 22 26 29 28 27 23 23 22 21 20 19 19 18 17 17 16 16 16 17 16 15 14 14 13 13 13 13 13 12 12 11 12 12 11 10 10 11 10 9 9 9 9 8 8 9 10 10 11 11 11 11 12 12 12 12 11 11 12 12 12 13 12
12 9 7 5 3 2 4 4 2 2 4 4 3 5 6 8 11 12 14 14 14 15 12 11 15 12 9 9 10 10 7 11 18 18 21 25 27 29 28 24 22 23 22 21 20 20 19 18 17 17 17 16 17 16 15 14 13 14 13 13 14 13 13 12 11 11 11 12 11 10 10 11 11 10 10 9 9 9 8 9 10 11 11 11 11 11 12 13 13 12 12 12 12 12 12 12 12
12 8 7 5 3 4 5 5 1 2 4 4 3 3 6 10 12 13 13 12 13 14 11 13 14 10 8 8 8 8 7 12 17 19 23 27 28 28 26 23 23 23 22 20 20 20 19 18 17 17 17 16 16 15 14 14 13 13 13 13 13 13 12 11 11 12 12 12 12 11 11 11 11 11 11 10 10 9 9 9 10 11 11 11 11 11 12 13 12 12 12 11 12 12 12 13 12
10 7 5 4 4 4 4 3 1 2 2 3 3 4 7 10 11 12 12 11 12 13 13 15 12 8 9 9 10 9 9 14 18 22 25 27 28 27 25 23 23 23 21 20 21 21 19 19 18 17 16 15 15 14 14 14 13 12 12 12 12 13 12 12 12 12 12 12 12 11 11 11 11 11 11 10 10 10 9 9 9 10 11 11 11 11 12 12 11 11 12 11 12 12 13 13 13
9 7 3 3 4 4 2 0 2 3 4 4 4 7 9 10 11 11 11 11 12 13 14 14 9 10 12 11 11 9 11 17 22 25 26 27 27 25 24 23 23 23 21 20 21 20 18 18 18 17 16 15 14 14 14 13 13 12 11 11 12 13 12 12 12 12 12 12 12 12 12 11 11 11 11 11 11 11 10 9 10 10 11 12 12 12 12 11 11 11 12 12 13 13 12 12 13
7 6 4 3 4 2 2 2 2 4 5 4 6 9 10 11 10 10 10 11 13 13 15 13 9 13 14 11 10 9 14 20 24 27 27 27 25 24 24 22 22 22 20 20 21 19 18 18 18 17 16 15 14 14 13 13 12 12 11 11 12 12 12 13 13 13 13 12 13 12 12 12 11 11 11 11 11 11 11 10 10 11 11 12 12 12 12 10 10 11 12 13 13 12 11 11 12
5 4 4 3 3 2 2 2 2 4 5 5 8 10 10 12 10 9 10 11 14 13 14 12 11 14 11 10 9 12 17 21 26 28 27 27 25 23 23 23 22 21 20 20 20 19 18 18 17 17 16 15 14 13 13 13 13 12 12 11 11 12 12 13 13 13 13 13 13 12 12 12 12 12 12 12 11 12 12 12 11 11 11 12 12 13 12 10 10 11 12 13 13 12 11 11 12
5 2 4 3 3 2 3 2 2 3 5 6 8 10 11 12 10 11 11 12 14 12 13 12 13 11 8 11 12 16 19 23 26 27 27 26 24 23 23 23 22 21 20 20 19 19 18 17 17 16 15 14 13 13 13 13 13 13 13 12 11 12 12 13 13 14 14 13 13 13 13 12 12 12 13 12 13 13 13 12 12 11 12 12 12 13 12 10 9 11 12 13 13 12 12 11 12
6 4 5 3 3 2 4 2 1 3 5 8 10 12 11 9 9 12 11 12 12 10 12 12 13 10 10 12 13 18 22 24 27 27 27 25 23 23 23 23 22 21 20 20 19 19 18 17 17 16 15 14 13 13 12 13 13 14 13 12 12 12 13 13 14 14 14 14 14 14 14 13 13 13 13 13 14 14 13 13 12 12 12 12 12 13 13 11 10 10 11 11 12 12 12 12 12
7 5 5 4 3 2 2 1 1 2 4 8 11 12 10 7 8 11 9 10 10 10 12 12 11 7 9 12 12 21 25 27 28 27 26 24 23 23 23 23 22 22 20 19 19 19 18 16 16 16 16 15 14 13 12 13 13 14 13 13 13 13 14 14 14 14 14 14 14 14 14 14 14 14 14 14 14 14 13 13 12 13 12 12 12 12 13 12 11 10 11 12 12 12 12 11 11
7 3 3 5 3 1 1 0 1 2 4 8 12 13 10 8 9 9 5 6 10 12 11 11 10 3 6 11 15 25 28 29 30 27 26 25 24 23 24 23 22 22 20 20 20 19 18 17 16 16 16 15 14 13 13 13 13 14 14 14 14 14 14 14 14 14 15 15 15 15 15 14 14 14 13 13 13 13 13 12 12 13 13 12 12 12 12 13 12 11 11 12 12 12 12 12 11
5 3 3 4 3 0 1 1 2 1 5 10 14 14 10 10 10 7 5 6 10 12 9 8 8 3 4 9 19 29 30 31 30 28 28 27 25 24 24 23 23 22 20 20 20 20 19 17 16 16 16 15 15 14 13 13 13 14 13 14 14 14 14 14 15 14 15 15 14 14 14 14 13 13 13 12 12 12 12 12 12 12 12 12 12 12 12 12 12 12 12 12 12 12 12 12 11
5 4 4 4 1 1 3 5 5 2 4 9 13 14 11 11 11 10 9 8 10 11 8 8 8 6 7 13 23 30 32 32 31 29 30 29 27 25 25 24 23 22 21 21 20 20 20 18 16 16 16 15 15 15 14 13 13 14 13 14 14 14 15 15 14 14 14 14 13 13 13 13 12 12 12 11 11 10 11 12 12 11 11 11 12 12 11 11 11 11 12 12 12 12 12 12 11
8 4 4 4 1 3 3 4 4 4 3 7 11 13 10 10 12 12 10 10 12 11 10 10 10 11 12 18 25 29 32 32 31 29 29 29 26 26 25 24 23 22 21 21 20 20 20 18 16 16 16 16 16 15 14 14 14 14 14 14 14 14 15 14 14 13 14 13 13 12 12 11 11 11 11 10 10 10 11 12 12 12 12 12 12 12 12 11 11 11 12 12 13 14 12 11 10
9 7 5 2 1 1 2 4 3 4 2 5 10 11 10 10 12 12 9 11 12 10 11 13 13 15 17 21 26 30 32 32 31 30 29 28 26 25 25 24 24 23 21 21 20 21 21 19 17 16 16 16 16 15 15 14 15 15 14 14 15 15 15 14 13 13 13 13 12 12 11 11 11 10 11 10 9 8 9 11 10 11 12 12 12 11 12 12 12 11 12 12 12 12 11 9 9
7 8 5 2 0 2 2 3 3 4 2 5 10 10 10 10 11 10 9 9 9 10 12 13 15 19 21 23 27 30 32 32 32 31 29 28 26 25 24 23 23 22 21 20 20 21 21 20 18 17 17 17 16 15 15 15 16 16 15 15 15 15 14 14 13 13 13 12 12 11 10 10 10 9 9 9 8 8 8 9 8 9 10 11 11 10 10 11 11 11 11 11 11 11 10 9 9
6 9 9 4 3 1 3 3 3 5 3 4 9 9 9 10 11 10 11 8 4 7 12 12 16 22 25 27 29 31 32 32 33 31 30 29 27 26 24 23 22 22 22 20 22 22 22 21 19 17 18 17 16 16 15 16 17 16 15 15 15 15 14 13 13 12 12 12 11 10 10 9 9 8 8 8 8 8 8 8 7 9 9 9 10 9 10 11 10 9 10 10 9 9 10 10 10
7 8 10 7 7 4 3 3 1 3 2 3 6 7 8 9 10 10 12 7 3 5 10 13 17 22 25 28 29 31 33 32 33 32 30 29 28 26 25 24 23 23 22 21 22 23 23 22 19 18 18 18 17 16 15 17 17 16 17 16 15 15 14 13 12 12 12 11 11 11 9 7 8 7 8 9 8 8 7 8 8 8 8 8 9 8 9 10 9 9 9 9 9 8 9 10 10
10 7 7 7 8 7 6 5 3 3 1 2 4 6 9 10 9 9 13 9 3 6 11 15 18 21 25 28 29 31 32 32 31 31 30 28 28 26 25 24 23 22 22 22 22 23 24 22 20 19 18 18 17 16 16 17 17 17 18 17 15 15 14 13 11 11 11 11 11 11 10 7 7 7 7 7 7 7 7 8 8 8 7 7 9 8 8 8 8 8 8 8 8 7 7 8 8
14 11 8 7 8 8 8 7 6 4 2 3 5 7 8 9 7 8 12 10 7 9 13 17 19 22 24 27 29 30 31 32 30 30 29 27 26 25 24 23 22 22 22 23 22 23 24 22 22 20 18 19 18 17 16 17 17 17 18 17 15 15 14 12 11 11 10 10 9 11 11 8 6 6 7 6 6 7 7 8 7 7 6 6 7 6 7 7 7 7 7 6 7 6 6 7 7
11 15 13 9 9 8 7 8 8 6 3 4 6 8 8 9 7 7 12 12 10 13 15 19 21 22 24 26 29 30 31 31 30 30 29 27 26 26 25 23 23 22 22 23 21 22 24 23 23 21 19 19 19 18 17 17 18 18 19 17 15 16 14 12 11 10 9 9 8 9 10 9 8 6 6 6 6 6 6 7 6 6 6 6 6 5 5 6 5 5 6 5 5 5 4 5 6
4 10 14 14 14 11 11 10 9 8 6 7 7 7 7 9 9 6 11 14 14 16 18 20 21 22 23 25 28 29 30 31 30 30 29 27 27 27 26 24 23 22 22 22 21 22 24 24 24 22 20 20 20 19 18 18 19 19 20 17 17 18 14 13 12 10 8 8 8 9 8 10 9 6 6 7 6 5 5 5 5 5 5 5 5 4 4 5 5 4 5 4 4 4 3 4 4
7 7 9 13 15 14 15 13 12 10 8 10 10 7 7 9 9 6 11 16 17 18 19 21 21 21 23 24 27 27 28 29 29 30 30 29 29 28 27 25 24 23 22 23 21 22 25 24 23 22 21 21 21 20 19 19 19 20 20 18 18 19 16 15 14 11 10 9 9 8 8 9 9 7 8 7 6 5 5 4 4 4 4 4 4 4 4 5 4 3 4 4 4 3 2 3 3
12 10 9 10 11 13 15 15 13 12 8 9 8 7 6 8 11 9 12 18 18 19 20 21 20 20 22 24 25 26 26 29 29 30 31 29 28 28 27 26 25 24 23 23 22 22 24 23 23 23 21 22 23 20 19 19 17 18 20 18 18 19 18 16 14 12 12 10 9 8 8 9 8 8 8 7 6 4 4 4 3 3 4 4 3 4 4 4 3 2 4 4 4 3 1 1 1
12 11 10 9 9 11 14 16 14 12 10 9 8 6 5 7 13 12 15 19 18 19 20 20 20 20 21 23 24 25 26 29 30 29 29 28 27 27 27 26 25 24 23 23 22 22 24 24 24 24 22 22 22 20 18 17 15 16 19 17 16 18 17 16 14 13 12 11 10 9 8 8 8 8 8 7 6 4 3 3 3 3 3 3 3 3 4 3 2 2 3 4 6 4 0 0 0
10 10 8 8 8 8 13 16 15 13 11 12 10 6 5 8 13 15 17 20 20 19 20 20 20 20 21 23 23 25 27 28 29 29 28 28 27 27 27 27 26 25 23 24 24 23 26 27 26 25 24 23 23 22 19 17 16 17 19 17 16 17 16 15 13 11 11 11 9 9 9 8 8 8 7 7 6 4 3 3 3 3 3 3 3 3 4 3 2 3 3 4 6 5 1 1 1
8 8 8 9 8 7 11 14 16 14 12 14 12 5 6 8 9 15 18 20 20 19 20 20 21 21 22 22 23 24 26 27 28 28 28 28 27 27 28 27 27 26 25 24 24 24 27 30 29 26 26 24 23 24 22 19 17 17 19 18 17 16 16 15 13 10 9 10 9 8 9 9 9 8 8 7 6 4 3 3 2 3 3 3 2 3 4 2 2 3 3 3 3 4 3 1 1
8 9 9 10 11 9 8 12 16 16 11 13 13 7 5 6 8 15 18 19 21 19 20 22 22 22 22 22 23 23 25 26 28 28 28 29 28 27 28 28 28 27 26 25 26 27 28 31 31 27 26 26 24 24 24 21 19 18 19 19 18 17 16 14 13 12 10 10 9 9 9 9 9 9 8 7 6 4 3 3 2 2 2 3 2 4 3 2 2 2 2 3 2 3 3 1 1
8 9 10 11 13 11 9 11 15 17 13 11 15 11 5 5 7 11 15 20 21 19 20 22 22 23 23 22 23 24 25 27 30 30 30 30 29 28 27 28 28 27 26 26 27 29 30 31 32 29 27 27 25 25 24 23 21 20 20 19 19 18 16 13 12 13 11 10 10 10 11 10 9 9 8 7 7 5 3 3 3 2 3 3 2 3 2 2 2 1 1 2 2 1 1 1 0
11 11 9 11 12 12 12 10 12 17 16 12 14 12 8 6 7 11 19 23 20 19 20 22 23 24 24 23 23 24 25 27 30 31 31 31 30 29 28 28 29 28 27 27 27 30 30 31 33 32 30 29 27 26 25 24 22 21 20 20 19 18 18 15 13 13 13 11 10 11 11 10 10 9 8 7 7 5 3 3 3 3 3 2 3 3 2 1 1 1 1 2 2 1 1 0 1
11 12 10 12 10 11 14 9 8 13 16 14 14 12 11 12 10 13 20 22 20 18 19 20 21 23 24 24 24 24 25 27 29 30 31 31 31 30 29 28 29 29 28 28 29 31 31 31 34 34 32 31 30 28 27 25 24 22 21 20 19 19 18 17 16 14 13 11 11 12 11 11 10 9 8 8 7 6 5 4 4 3 3 2 2 3 2 0 1 1 1 2 3 2 2 1 1
7 10 10 12 11 10 13 12 9 9 12 13 15 14 13 14 13 13 17 19 18 18 17 19 21 23 25 25 24 25 26 25 25 28 30 31 30 30 29 28 29 30 29 30 32 33 33 33 34 35 34 33 33 31 29 28 26 25 23 22 19 18 18 18 17 15 12 12 13 13 12 11 10 9 9 8 7 7 6 5 4 4 3 2 2 2 2 1 2 2 2 3 2 2 3 2 2
7 8 8 10 11 9 12 13 9 8 10 11 13 15 15 16 16 17 20 19 17 17 18 20 23 24 24 25 25 25 24 23 24 27 30 31 31 31 30 29 30 31 30 31 32 32 34 35 34 35 35 35 34 33 31 30 28 26 25 22 19 16 17 18 16 15 13 12 14 14 12 11 11 10 9 9 8 7 6 5 4 4 3 3 2 2 1 1 2 2 1 1 1 3 3 2 1
9 8 8 8 9 9 10 11 8 7 8 10 13 14 14 15 16 16 17 17 16 18 20 21 24 25 24 25 25 24 24 24 26 28 30 32 32 32 31 30 30 31 31 32 33 33 35 36 35 36 36 36 36 35 33 31 29 27 25 23 20 14 14 16 15 14 14 13 13 13 12 12 11 11 10 9 8 8 7 6 5 4 4 3 2 1 1 1 2 2 1 1 1 3 3 2 1
10 9 9 8 8 9 10 10 10 10 9 10 13 11 11 12 14 15 15 16 17 18 21 22 23 25 25 25 25 25 26 26 27 28 30 32 32 32 32 31 31 31 32 33 36 38 38 38 37 37 37 37 37 36 35 32 30 29 26 25 23 17 14 17 17 17 16 14 13 13 13 12 11 11 11 10 9 8 7 7 6 5 5 4 3 2 2 1 2 2 1 2 1 2 3 3 1
12 13 12 10 9 11 10 5 6 10 11 12 13 10 10 11 13 14 14 15 16 17 20 21 22 23 22 22 24 26 28 28 29 29 31 32 33 33 33 31 31 32 33 34 37 39 39 39 39 38 38 38 38 37 36 34 32 31 28 27 26 22 20 20 19 18 18 16 15 14 13 12 11 11 11 11 9 8 8 8 7 7 6 6 5 4 3 2 3 2 2 3 1 1 2 3 2
11 15 16 15 11 11 11 7 4 7 10 12 13 11 9 12 16 15 12 13 15 15 17 20 21 21 21 22 24 26 27 28 29 30 32 32 33 33 33 32 32 32 33 34 36 37 39 40 40 39 39 39 39 38 36 36 35 33 32 30 28 27 25 23 20 19 19 18 17 15 14 13 12 12 12 11 10 9 9 8 8 8 7 6 6 5 5 4 3 2 2 2 1 3 2 1 1
8 11 16 19 15 11 11 10 8 7 8 11 15 13 10 10 15 17 15 14 15 15 15 18 21 21 22 24 24 25 27 27 28 29 31 32 32 33 34 34 33 32 32 33 34 35 38 40 40 40 40 39 40 39 38 38 37 36 34 32 30 28 27 24 21 20 19 19 17 15 14 14 13 13 13 12 11 10 9 9 9 8 7 7 7 7 6 4 3 3 3 3 2 4 2 1 1
8 7 11 18 19 16 13 11 10 8 8 9 12 12 11 10 12 15 18 18 17 16 15 16 20 22 24 24 24 26 28 28 29 29 31 32 34 35 35 35 34 32 30 31 33 34 37 40 41 40 39 40 40 40 40 40 39 37 36 33 32 30 28 26 23 22 21 20 20 18 16 16 14 14 14 13 12 11 10 10 10 9 8 8 7 8 7 6 6 6 4 3 3 4 3 2 2
9 5 5 11 16 19 17 12 10 9 9 10 12 12 10 9 10 12 15 17 16 17 16 16 19 23 25 25 25 27 28 29 29 30 32 33 34 35 35 35 33 31 30 31 33 33 36 40 40 40 39 39 40 40 41 41 40 39 37 35 34 33 30 28 26 24 24 23 22 20 19 18 16 15 15 14 14 13 11 10 10 10 9 8 8 8 7 8 8 7 5 4 4 3 4 3 3
11 6 5 8 12 15 16 13 10 10 11 13 14 15 11 9 10 11 12 14 15 15 15 15 19 24 25 25 26 26 27 28 29 30 32 33 34 34 33 32 32 32 31 31 31 32 35 39 40 40 39 39 39 40 41 41 41 40 39 38 36 35 33 31 28 27 26 24 23 21 20 20 18 17 16 16 15 14 13 11 11 11 10 9 9 8 8 9 9 8 6 6 5 4 5 4 4
12 10 8 9 9 10 11 11 10 10 13 14 16 17 14 10 10 11 12 12 13 14 13 14 18 22 24 24 25 25 26 27 28 29 30 32 32 31 31 31 33 32 31 30 31 31 35 39 40 39 39 38 39 39 40 40 41 41 41 40 38 36 35 33 31 30 29 26 24 22 20 20 19 19 17 17 16 15 14 13 12 12 11 10 10 8 9 9 8 8 8 7 6 5 5 5 5
12 10 9 8 8 8 8 9 10 11 12 13 17 19 17 13 10 10 12 13 15 15 14 15 16 19 22 23 24 25 27 28 28 29 29 30 30 31 32 32 33 33 32 32 32 32 34 39 41 40 39 38 39 39 39 39 40 41 41 41 40 38 36 35 34 32 31 28 25 23 22 20 20 20 19 18 17 16 16 15 13 13 12 12 11 9 9 9 8 9 9 8 7 6 5 5 5
11 10 9 9 8 7 8 9 10 11 11 11 15 17 16 14 11 12 13 12 13 15 16 16 17 19 22 23 24 25 26 27 28 29 29 31 32 33 34 34 34 35 35 34 33 33 35 39 41 40 39 39 39 39 39 39 39 41 42 42 41 39 38 37 35 33 32 30 28 26 24 23 22 21 21 20 18 17 16 16 14 14 13 12 11 10 10 9 9 10 10 9 8 7 6 6 5
13 11 10 10 9 8 10 10 9 10 11 13 15 15 13 13 12 15 17 13 11 15 18 20 18 18 20 21 23 24 25 27 28 29 30 32 34 35 35 36 35 36 36 36 35 34 36 40 41 40 40 39 39 39 38 38 39 40 41 41 41 40 39 38 36 35 34 32 30 29 27 25 24 23 22 21 19 18 18 16 14 14 14 12 12 12 11 10 10 10 10 10 9 8 7 6 6
13 12 10 11 10 8 8 8 9 9 8 12 16 13 10 9 8 12 17 18 17 16 16 17 16 16 18 20 22 23 25 27 27 28 30 32 35 35 36 36 36 37 37 37 36 36 38 41 43 41 40 40 40 39 38 37 37 38 39 40 40 40 39 38 37 36 35 34 32 30 29 27 26 25 23 22 20 19 19 17 15 14 14 13 13 13 12 11 11 11 10 10 10 10 8 7 6
11 12 11 12 10 9 7 7 8 7 7 10 12 9 6 5 4 6 10 15 20 20 19 19 18 17 18 18 20 22 23 26 27 28 30 32 33 34 35 36 37 37 38 38 38 40 41 43 44 43 42 41 41 40 39 37 36 36 37 39 39 39 39 38 37 37 36 35 33 31 29 28 27 27 26 24 22 20 20 19 16 15 15 15 14 14 13 13 12 12 11 10 11 11 10 8 7
8 11 12 11 11 11 9 9 9 8 8 8 8 9 8 7 7 9 11 10 13 18 19 22 23 23 22 20 20 21 22 25 27 29 31 33 34 35 36 36 37 37 39 40 41 42 44 45 45 44 42 41 41 40 39 38 37 36 36 37 37 38 38 38 37 37 36 35 33 31 29 28 28 27 27 25 24 22 21 20 18 17 17 16 15 15 14 14 13 13 12 12 12 12 12 10 9
8 9 12 11 12 12 9 8 9 9 10 7 9 12 11 9 8 10 17 17 14 15 15 17 21 24 25 24 23 23 23 25 28 30 31 33 35 37 37 37 38 39 40 42 43 43 44 45 46 44 43 42 42 40 39 38 37 36 36 36 36 36 36 36 36 36 36 35 35 32 30 29 28 28 27 26 25 24 22 21 19 19 18 17 16 15 15 14 14 14 13 13 13 13 13 11 10
15 10 10 11 11 11 9 8 9 10 10 8 10 13 11 10 7 6 14 20 20 18 17 16 17 19 22 24 24 25 25 25 28 30 31 32 34 36 37 37 38 39 39 40 41 42 42 44 46 45 44 43 42 40 39 38 37 36 36 35 35 35 35 35 35 35 35 35 35 33 31 30 29 28 28 27 26 25 24 22 21 20 19 19 18 17 17 16 15 15 15 14 13 14 14 14 12
17 14 11 11 10 10 10 8 8 9 8 7 10 11 9 9 10 8 9 13 17 19 18 17 18 19 21 22 23 25 26 26 27 29 30 32 34 36 38 39 39 39 39 39 39 41 41 43 44 45 44 43 42 41 40 39 38 37 36 35 34 34 35 35 34 34 34 34 34 32 31 30 29 29 28 28 27 26 25 24 22 21 20 20 20 19 19 18 17 17 17 16 15 14 15 15 14
15 14 12 11 10 10 11 10 9 9 8 7 7 8 7 6 9 11 9 8 11 13 14 15 17 20 22 22 22 23 24 26 27 29 31 33 35 36 37 38 38 38 38 37 38 39 39 39 41 43 44 44 44 43 42 41 40 38 38 36 35 34 34 34 34 34 34 34 33 32 31 30 29 29 29 28 28 27 26 25 23 22 21 21 21 21 21 20 19 19 18 18 18 17 16 16 15
8 13 15 15 12 11 12 12 11 10 9 8 7 6 5 3 4 9 11 10 9 10 11 11 14 18 21 21 22 23 24 26 27 29 30 32 34 36 36 36 36 35 36 37 37 38 38 38 39 41 42 43 44 44 44 43 41 41 40 38 36 35 34 34 33 34 34 34 34 32 31 30 30 29 29 28 28 27 27 26 25 24 23 22 22 21 21 21 20 21 20 20 19 19 18 17 16
Wind_Direction
150 146 151 154 154 160 172 198 226 209 245 257 239 186 124 70 108 138 137 147 150 144 145 141 145 143 137 132 122 77 49 70 61 79 115 126 147 150 146 148 148 140 137 137 134 131 131 131 131 131 129 129 129 128 128 128 128 128 132 135 141 143 141 135 131 129 128 130 128 127 127 125 122 123 123 120 117 113 109 103 102 99 92 83 82 97 100 97 103 107 108 109 110 111 110 109 109
146 149 155 153 155 172 176 194 249 201 232 251 198 114 126 135 149 153 147 160 136 140 150 143 144 138 128 125 112 88 64 50 66 98 114 135 144 147 149 150 147 142 138 135 133 130 131 133 130 128 127 127 128 128 128 130 131 135 142 146 149 144 135 129 131 134 135 136 133 131 129 129 127 126 126 121 117 113 111 108 105 101 96 87 87 96 96 98 103 102 103 104 105 107 108 107 104
155 163 158 148 158 193 195 193 249 234 234 247 115 97 126 146 139 130 140 144 129 142 144 141 142 134 143 138 99 80 93 68 96 114 126 141 144 148 152 150 147 143 139 137 136 134 136 137 130 126 126 127 129 131 131 131 133 141 145 142 140 134 132 134 137 139 137 136 133 132 132 131 129 128 124 118 116 115 114 111 108 106 99 91 91 93 90 93 98 98 99 101 102 104 103 101 100
166 163 157 158 170 198 214 211 252 261 258 303 79 90 110 121 115 117 132 138 138 144 141 141 135 126 143 133 91 85 106 97 115 127 135 145 149 151 151 150 148 143 141 139 138 139 142 138 129 125 124 124 126 127 126 126 131 138 134 131 132 128 131 135 137 137 136 135 133 132 132 129 128 124 116 115 119 119 115 112 110 107 99 91 93 94 90 93 97 99 101 102 103 100 98 97 95
165 158 162 179 197 217 243 247 250 257 304 12 61 93 99 115 123 125 135 142 146 146 144 145 127 115 110 98 74 102 108 110 128 136 138 146 152 151 151 151 147 144 143 139 140 144 144 136 128 127 125 125 125 125 124 129 137 136 133 132 129 128 131 133 134 134 132 130 128 127 125 122 120 118 114 117 118 116 112 111 109 106 100 92 94 96 96 99 100 101 102 101 101 99 99 99 97
160 156 170 190 231 284 264 252 237 248 19 5 337 82 101 127 133 135 136 141 148 149 147 144 133 130 107 81 72 98 106 122 138 142 141 145 151 152 151 149 146 145 143 140 142 144 142 136 132 131 129 129 128 127 128 135 138 133 131 130 125 126 126 124 127 127 125 122 118 117 117 116 117 117 116 115 114 113 111 112 109 107 104 96 95 97 99 101 101 102 102 100 100 102 102 102 102
161 159 180 194 240 248 253 257 265 294 56 25 355 68 118 137 140 141 138 144 150 156 153 141 139 129 112 110 95 91 99 128 140 145 146 147 150 152 150 146 145 145 143 141 141 143 143 136 135 133 132 133 131 130 132 135 134 130 129 126 125 124 118 116 119 117 118 117 115 115 116 117 117 115 112 111 112 113 113 113 109 110 108 98 96 100 102 100 100 101 99 100 100 100 99 100 102
169 179 198 205 235 206 241 264 293 6 68 68 40 68 126 140 147 148 144 150 155 160 158 151 146 114 110 133 106 99 109 128 141 144 146 147 149 151 148 146 147 146 142 140 141 143 142 137 137 135 134 134 132 132 132 134 132 129 126 125 125 119 115 116 116 114 115 115 115 116 115 115 114 111 109 110 111 113 115 115 112 114 111 99 96 100 101 99 98 96 94 96 97 98 97 97 98
186 211 211 218 252 220 239 265 127 82 80 100 106 105 132 147 153 153 151 151 156 163 162 163 157 114 117 118 101 113 123 134 141 143 147 148 149 150 149 149 148 146 141 141 142 143 142 140 140 137 135 133 133 132 132 133 130 126 125 124 121 116 115 115 115 115 113 112 114 113 112 113 111 110 107 107 108 110 111 113 114 115 113 102 96 98 100 99 95 90 89 94 98 99 97 97 96
197 229 241 254 265 255 250 298 94 95 94 101 113 130 144 154 156 156 155 150 157 163 161 165 152 123 129 115 104 119 132 140 143 144 149 149 150 150 149 150 149 146 142 141 143 143 143 142 142 139 138 138 136 132 131 130 125 123 123 120 115 117 118 116 116 114 112 112 113 112 111 110 108 107 104 103 105 107 108 109 111 113 112 106 99 99 100 99 94 88 89 95 100 100 98 98 96
201 226 235 264 266 288 337 37 60 84 103 112 116 136 150 150 155 157 155 151 157 159 156 162 143 127 128 114 104 119 137 146 148 148 150 150 150 150 150 150 149 146 142 143 144 144 143 144 144 141 140 140 138 134 133 130 128 127 123 121 117 119 119 118 119 116 115 114 112 111 109 107 105 103 101 103 106 109 111 110 112 112 112 110 104 101 102 102 97 92 92 95 97 97 97 97 97
221 214 209 262 296 339 339 338 46 88 118 135 130 142 152 150 155 159 160 153 153 156 158 163 148 138 129 115 116 129 144 151 151 151 152 151 150 151 151 150 149 146 144 145 145 144 144 146 145 143 142 141 139 136 135 134 134 131 126 124 121 120 119 119 119 117 116 113 112 110 107 105 103 103 103 105 108 109 108 108 110 110 111 110 106 102 102 103 101 98 99 100 98 98 95 94 96
234 255 243 278 317 334 305 297 84 125 140 130 134 147 154 154 158 160 160 151 153 160 160 162 154 147 119 112 128 141 150 155 153 152 152 151 151 152 152 151 150 148 147 146 146 145 146 147 146 146 144 140 140 138 136 137 135 132 129 125 122 120 119 118 117 116 115 113 112 110 108 105 105 105 105 105 105 104 103 103 104 106 109 109 108 105 102 99 99 101 102 102 101 97 91 88 88
225 262 272 289 298 287 284 274 145 181 134 113 131 148 157 156 154 159 156 149 154 156 149 156 156 141 119 122 138 151 156 158 155 153 153 152 151 152 153 152 151 150 149 149 149 146 147 149 149 149 145 141 140 139 139 140 136 132 129 126 125 124 121 119 118 117 114 113 111 110 108 104 104 103 103 104 103 102 100 99 100 103 107 110 112 110 108 105 100 100 101 101 99 94 91 89 88
224 259 273 268 271 247 244 283 275 220 113 117 138 147 155 147 152 160 159 150 141 137 140 153 162 146 147 156 159 161 160 159 158 155 154 152 151 152 152 152 152 153 150 152 152 147 150 151 151 150 146 144 141 141 142 140 136 133 131 129 130 127 125 123 121 118 115 114 111 109 107 102 101 100 100 99 98 98 97 96 98 100 103 108 112 114 115 115 111 107 104 104 103 101 101 99 97
223 260 287 261 262 227 167 161 272 238 109 123 141 151 153 143 161 160 143 140 130 143 152 158 171 159 157 167 160 160 160 159 159 156 154 153 152 152 151 153 154 155 153 156 155 149 154 153 151 152 148 145 143 144 142 139 138 135 135 134 133 131 127 126 124 119 116 114 111 109 105 103 101 98 95 92 92 93 94 92 94 98 100 103 108 113 113 116 116 112 109 108 107 104 102 101 98
211 211 255 254 240 108 38 28 357 28 112 127 148 163 159 147 162 156 135 144 141 154 160 154 168 144 128 151 151 155 157 159 160 157 157 155 153 154 153 154 156 158 157 160 159 153 157 157 153 154 150 147 147 147 143 140 139 136 136 136 135 134 130 126 123 119 117 115 113 110 106 105 104 101 99 95 93 91 92 91 92 96 98 102 106 108 108 113 114 111 110 108 106 103 100 96 93
203 209 231 246 231 80 15 29 28 15 124 136 161 175 168 154 160 157 156 160 153 157 152 141 142 117 112 132 145 153 155 159 161 160 160 158 158 158 156 158 160 161 160 163 163 158 161 159 155 156 152 152 151 148 145 142 139 136 138 138 136 135 129 124 122 120 119 118 114 109 107 108 107 107 108 106 105 101 97 94 93 94 98 101 102 103 104 108 108 106 106 104 101 96 93 87 84
216 238 243 248 50 67 15 14 14 357 90 138 169 182 178 162 160 164 168 166 164 162 152 148 136 122 123 136 147 154 156 159 163 163 161 160 161 161 160 161 163 163 163 166 167 164 164 161 157 158 156 155 153 149 147 144 141 141 142 141 137 134 129 127 128 125 123 122 117 114 113 113 112 112 110 109 108 105 98 92 90 90 93 96 97 99 102 105 105 104 103 101 95 86 83 79 76
225 241 251 251 59 94 21 354 349 2 27 160 168 181 186 164 161 175 179 168 172 175 160 159 151 138 138 146 152 157 159 162 165 166 164 164 165 164 163 163 164 165 165 166 169 168 166 165 161 161 161 158 155 152 150 148 147 147 146 144 139 136 134 134 134 131 129 126 121 118 118 116 113 111 108 104 100 97 92 88 87 88 90 93 95 95 98 101 102 102 101 96 89 85 87 86 81
217 226 254 14 158 221 90 34 40 39 7 169 162 180 186 167 171 185 185 174 181 190 175 170 159 147 148 153 157 160 162 164 167 168 168 167 167 166 166 165 165 166 166 166 171 171 169 168 164 163 164 160 158 154 152 154 153 151 150 145 141 140 138 140 139 136 133 127 121 120 119 115 113 113 108 104 103 101 94 90 91 92 94 96 95 92 96 97 97 100 97 91 89 92 96 95 91
230 221 247 278 240 228 107 99 60 38 31 148 163 183 179 168 184 193 194 190 167 181 182 173 159 153 154 157 160 163 165 167 169 171 170 170 169 168 167 167 166 167 168 169 173 174 171 171 167 165 167 164 161 157 157 160 157 154 152 146 143 143 141 143 139 136 135 127 126 124 119 114 113 117 115 115 111 104 100 100 102 99 98 98 94 94 99 96 97 99 95 94 92 91 94 94 94
243 225 233 245 244 252 174 169 357 358 30 143 162 178 176 178 194 199 204 204 87 135 166 162 158 157 156 158 163 166 168 170 172 174 173 172 171 169 168 168 169 170 170 171 175 176 173 173 171 167 168 168 165 162 163 163 162 158 154 148 147 147 146 146 141 140 139 132 133 127 123 121 118 120 121 120 112 106 107 106 106 102 98 101 99 95 97 94 96 100 98 99 95 90 92 90 87
238 248 235 236 242 244 228 226 259 275 239 170 166 177 185 193 198 192 204 208 130 130 148 153 157 158 158 160 165 168 170 172 174 176 175 174 173 171 170 170 171 171 171 173 177 179 176 175 175 170 170 171 168 166 165 165 166 162 157 152 150 152 149 148 147 149 145 138 137 131 129 129 122 122 119 116 112 112 112 105 100 97 97 107 105 97 99 97 96 100 98 98 95 90 90 89 85
230 250 252 244 243 239 236 238 238 241 231 198 192 196 195 198 200 190 202 200 166 151 147 152 156 158 162 163 166 169 172 173 175 177 176 176 175 173 172 172 173 173 173 174 176 180 179 178 178 175 173 174 172 169 167 169 169 165 162 157 156 157 153 155 155 155 151 141 140 135 131 128 123 125 122 119 119 117 112 102 95 94 98 103 101 99 105 102 97 102 101 98 97 89 86 92 89
221 240 250 252 246 237 234 232 230 238 222 202 205 204 200 196 205 207 202 192 165 158 153 154 158 161 165 166 168 170 172 175 176 177 177 177 176 176 175 174 176 176 176 176 175 179 181 180 181 177 176 177 175 172 170 173 171 168 167 163 163 163 159 165 161 158 157 147 146 141 136 134 125 122 131 130 123 118 110 101 95 94 93 94 97 103 108 103 100 105 104 96 94 89 87 93 87
225 245 254 255 256 251 245 242 239 243 225 219 225 218 204 191 203 209 186 181 167 160 159 159 162 164 167 168 170 171 173 176 177 177 178 178 179 178 177 177 178 178 178 178 176 180 184 182 182 181 181 180 176 175 173 174 172 170 172 169 170 168 165 172 168 164 163 157 158 149 144 143 130 128 143 136 121 113 104 96 99 96 91 98 102 104 110 106 104 114 119 118 114 104 91 95 89
262 268 267 254 255 252 245 245 237 237 225 216 226 235 217 187 204 211 165 170 169 165 164 163 166 167 168 170 171 173 175 177 178 179 181 181 181 180 180 179 179 179 179 180 178 182 185 183 184 185 184 182 178 178 177 176 176 174 174 174 175 174 171 174 173 169 167 165 164 156 154 151 141 143 147 137 122 114 109 101 102 102 102 108 109 121 126 108 101 106 116 129 139 128 107 102 98
255 260 271 260 252 244 234 232 223 222 214 201 215 230 214 193 216 214 163 167 171 169 167 165 169 167 168 171 171 176 178 178 180 183 185 184 183 183 183 183 181 181 180 182 181 183 184 182 187 188 187 186 179 180 182 179 177 176 176 177 179 178 173 172 173 172 171 168 163 163 163 158 151 147 149 143 126 118 121 116 110 108 115 119 126 133 119 106 118 110 102 120 125 113 106 102 98
244 245 257 263 253 236 223 220 211 212 209 193 211 226 204 202 218 205 167 170 172 170 170 168 170 168 170 172 173 179 181 183 185 186 187 186 186 185 185 185 183 182 181 182 182 183 184 183 188 191 192 191 183 181 184 179 177 179 178 179 180 177 171 171 173 174 175 170 167 170 167 163 161 152 153 149 131 124 128 123 115 113 136 133 121 117 106 107 126 97 82 100 99 92 91 198 167
230 234 237 245 252 229 209 209 202 204 199 190 213 236 202 199 202 187 169 174 175 171 172 171 171 170 171 174 177 182 184 187 189 188 189 187 188 188 187 186 185 184 183 183 184 184 186 187 190 192 194 194 188 186 186 181 179 181 181 183 182 175 170 172 174 178 180 176 173 176 171 169 171 162 159 154 141 135 135 128 126 135 154 132 118 122 114 109 101 80 48 57 85 96 82 303 220
215 224 224 222 238 230 201 201 202 204 191 188 212 238 202 193 181 176 174 180 179 174 174 173 174 174 173 176 180 184 187 190 190 190 191 190 190 190 189 188 187 186 185 184 184 184 188 191 191 192 194 192 190 191 190 186 181 181 184 187 186 178 173 175 173 176 186 184 177 180 180 173 174 171 162 158 149 141 142 136 146 172 148 121 135 124 107 103 99 97 83 61 85 102 84 5 270
209 220 225 214 219 224 203 197 202 206 198 189 204 230 212 179 169 177 182 188 183 177 179 176 176 177 176 178 181 185 188 191 193 193 192 192 192 192 191 190 189 188 187 185 185 186 190 194 193 191 194 192 189 192 192 191 186 182 185 186 187 184 180 180 179 178 183 187 184 187 188 177 175 173 165 161 154 147 158 143 165 199 138 123 134 109 102 109 90 74 87 87 84 85 77 29 339
202 213 228 223 218 222 213 198 196 203 213 203 201 220 226 165 160 178 196 200 189 182 183 180 178 179 179 180 182 186 189 191 193 194 194 193 193 192 192 192 191 189 189 187 189 191 192 194 194 192 194 193 191 191 190 191 190 185 184 185 188 188 184 185 191 191 186 189 193 194 191 182 178 176 172 168 155 154 164 152 172 187 147 140 124 104 110 115 103 78 48 69 85 80 85 81 42
205 205 219 225 220 223 219 202 190 200 214 214 206 216 222 196 167 184 210 208 194 189 186 183 182 180 182 183 185 189 190 192 193 194 194 193 193 193 192 193 192 191 191 189 192 197 195 195 196 195 195 194 193 193 190 191 191 188 186 188 190 189 189 189 194 199 194 192 200 200 194 185 183 180 176 170 157 155 158 163 174 165 151 143 116 113 117 105 116 111 44 20 28 37 29 142 192
223 217 219 225 221 222 223 209 183 199 216 219 215 214 215 218 199 193 212 208 196 196 188 184 185 183 185 186 188 190 192 193 193 192 192 192 192 192 192 192 192 193 193 190 196 202 200 198 198 198 197 196 196 195 194 194 194 192 191 192 193 192 194 196 196 198 198 196 202 203 197 192 189 185 180 172 163 160 159 171 177 160 156 145 127 129 128 187 302 322 336 349 8 8 353 21 159
251 239 226 229 230 222 220 215 193 198 222 224 221 219 212 220 219 206 215 214 202 197 189 187 189 188 189 190 190 191 192 194 191 190 192 190 191 192 191 192 192 194 194 195 201 206 206 204 201 200 199 199 199 198 197 198 198 196 196 195 196 197 199 200 201 201 200 204 207 203 200 200 195 192 188 177 175 172 169 178 177 161 157 159 153 146 167 224 314 326 335 359 2 350 12 64 138
243 248 234 229 231 228 222 217 202 201 226 229 226 231 220 214 219 209 205 210 206 197 194 193 193 193 192 192 192 191 190 189 187 189 191 191 191 191 191 193 193 193 194 198 201 204 208 209 206 203 202 202 202 202 201 201 202 200 199 198 197 202 206 204 205 207 205 210 213 203 199 204 201 201 198 189 190 190 186 196 193 176 166 172 168 155 197 286 339 325 349 43 288 328 25 86 146
230 240 241 234 227 230 232 220 203 207 229 234 228 235 234 220 222 218 203 202 205 201 201 198 196 195 194 194 192 189 187 185 186 187 189 191 191 190 191 193 195 194 194 197 200 206 211 212 210 208 206 205 205 205 205 205 206 205 203 203 200 199 210 210 207 212 211 212 218 211 204 207 206 206 204 199 201 201 201 207 209 204 196 191 178 173 234 311 317 302 308 196 245 321 0 61 134
227 232 238 237 226 226 233 216 208 220 232 243 240 239 245 232 226 230 216 205 206 206 206 204 201 199 197 195 192 188 187 185 186 187 188 190 190 191 192 193 194 194 195 198 205 211 215 214 213 211 209 208 208 208 208 208 210 210 208 210 207 200 207 213 211 216 218 214 218 218 212 210 210 209 205 203 204 207 210 208 211 216 212 211 202 203 229 262 274 284 278 244 230 318 333 26 69
224 228 234 235 227 226 239 231 209 225 229 237 248 247 243 233 225 227 218 209 209 207 208 207 205 205 201 197 194 192 190 187 186 187 188 189 190 191 193 193 193 195 197 201 207 212 215 215 215 214 213 211 211 211 210 210 213 214 212 214 215 211 214 220 219 221 224 221 219 220 218 214 214 212 205 203 205 209 213 210 213 216 214 220 216 214 226 229 244 250 252 261 256 275 313 26 21
222 222 228 237 239 229 236 248 233 232 228 219 227 243 243 223 223 226 214 207 210 206 206 206 204 203 201 199 198 196 193 191 189 189 189 190 190 191 193 194 195 196 199 203 208 211 214 217 216 216 215 213 213 213 211 212 214 215 215 216 217 217 220 223 223 223 225 226 222 220 222 221 218 218 212 208 207 209 214 213 214 215 215 222 223 222 227 230 244 249 242 248 250 260 272 56 2
232 214 218 230 240 240 236 240 235 237 242 216 210 233 250 225 221 224 216 211 209 205 205 204 201 198 199 200 199 197 195 193 192 192 191 191 191 192 194 196 197 198 200 202 206 209 214 218 218 217 217 216 215 214 213 214 216 217 218 218 220 221 222 223 222 222 224 227 225 219 221 225 221 220 221 218 215 215 216 215 216 215 215 221 226 226 223 226 240 244 241 233 234 257 262 203 198
237 216 213 222 229 235 237 242 240 242 262 241 214 227 251 241 225 220 218 216 208 204 204 201 200 199 200 201 199 198 197 194 193 193 193 193 193 194 196 197 198 198 198 199 203 206 212 218 220 218 217 217 217 216 216 216 217 219 219 220 223 225 226 226 226 224 224 226 227 221 220 226 225 222 224 226 225 222 219 217 216 215 214 218 226 229 224 218 223 232 245 251 249 260 267 235 204
238 235 226 225 225 230 232 239 244 241 254 248 219 218 240 246 231 218 217 217 210 207 209 204 200 200 201 202 201 200 198 196 195 194 194 195 195 196 197 196 196 196 196 198 200 204 210 217 219 218 217 217 218 218 218 218 218 220 221 222 224 226 228 229 230 229 228 228 229 227 226 229 230 227 228 230 229 226 222 219 218 216 214 217 221 226 228 225 225 232 245 259 260 260 261 253 235
234 234 230 230 228 230 229 233 241 241 244 243 226 218 230 245 230 216 214 215 212 211 210 208 204 203 201 202 202 201 199 198 197 197 196 196 197 198 197 196 195 196 196 197 198 200 208 216 218 218 217 217 218 219 219 220 220 221 222 223 224 227 228 229 231 232 231 229 230 230 229 231 232 231 232 233 233 230 226 222 220 219 214 216 220 219 224 229 230 232 237 248 256 255 256 261 259
230 228 227 229 226 225 226 228 233 239 240 237 232 227 234 246 231 220 218 214 216 215 208 206 206 204 201 201 203 201 198 198 198 199 198 197 197 196 195 196 196 196 195 195 195 197 205 215 218 218 218 217 218 220 220 221 221 222 223 224 225 227 229 230 231 232 232 230 230 230 231 231 231 231 232 234 236 234 232 227 223 222 219 218 220 219 223 227 229 236 239 241 247 255 258 259 257
228 226 222 229 225 215 219 219 218 233 239 232 231 231 235 243 233 226 225 214 217 221 212 205 205 203 201 201 202 201 199 198 197 198 197 196 195 194 195 196 195 195 194 195 196 197 205 216 219 219 218 218 219 220 220 221 222 223 223 224 225 227 229 231 232 233 234 232 230 229 231 231 230 231 231 233 236 236 236 233 226 225 223 221 221 221 225 224 222 230 237 239 243 250 256 258 253
220 220 213 218 216 204 209 211 211 227 236 230 231 230 233 243 240 234 236 222 213 219 218 212 207 204 202 200 201 202 200 199 197 196 195 194 193 194 195 195 194 195 195 196 197 197 205 216 220 219 218 218 218 219 220 221 222 223 223 224 225 226 228 231 232 234 235 235 233 231 231 231 230 231 232 234 235 236 239 239 233 230 227 223 224 223 226 228 227 229 237 242 244 245 250 254 253
211 210 208 213 208 201 207 213 217 229 230 223 227 232 237 245 241 231 234 233 220 217 218 217 213 208 204 201 201 201 200 199 198 196 195 194 194 193 194 194 193 195 196 196 197 197 205 215 219 219 218 218 217 218 219 221 222 222 223 223 225 226 227 229 231 233 235 237 236 234 233 233 233 234 235 237 238 238 242 242 237 234 231 226 226 226 227 229 231 233 238 242 244 246 247 247 249
208 208 213 220 218 214 212 212 218 225 226 213 213 225 236 238 237 226 226 228 225 221 216 214 215 213 209 205 202 202 201 200 198 197 197 196 195 194 193 194 194 195 197 197 198 199 205 215 219 218 217 217 216 217 218 219 220 221 222 223 224 226 227 229 230 232 234 236 237 236 234 234 235 237 238 239 241 240 242 243 237 235 234 230 230 230 230 231 233 235 238 239 242 246 247 244 244
201 203 215 221 223 230 237 242 242 243 241 214 203 214 232 233 234 217 217 221 218 218 218 217 217 216 213 209 204 203 202 200 198 198 199 198 196 195 194 194 195 196 197 198 199 203 208 215 219 218 216 216 215 216 216 217 218 220 221 222 223 225 227 228 230 231 232 234 235 235 234 233 234 238 241 240 241 241 242 241 237 234 234 232 231 232 232 234 236 235 236 240 241 245 248 244 241
194 198 215 219 224 234 246 253 256 259 252 226 204 215 225 235 239 216 209 216 212 211 216 219 220 218 215 212 208 205 202 200 199 199 200 198 196 196 195 195 195 196 199 201 202 207 212 215 218 217 215 215 215 215 216 216 217 219 221 221 223 224 226 227 228 230 231 232 233 233 233 234 234 237 240 241 240 239 240 239 237 234 234 232 231 232 232 236 240 238 237 240 242 245 248 245 240
225 205 205 208 224 233 241 247 240 234 238 228 215 221 219 222 231 210 207 213 213 211 212 215 217 217 217 216 214 211 206 202 201 201 200 198 196 197 196 196 196 198 201 203 205 208 213 217 219 217 214 214 214 214 215 216 217 219 220 221 222 223 224 225 226 228 230 231 233 233 233 234 235 235 237 238 238 237 237 236 234 232 232 231 230 232 233 234 239 241 239 241 244 245 246 245 242
242 248 211 199 215 219 219 234 235 228 232 230 221 225 225 221 221 203 204 210 212 213 214 216 215 213 214 216 215 213 210 206 203 202 201 198 198 198 197 197 198 199 200 202 205 208 211 217 220 219 216 214 214 214 214 215 216 218 219 220 221 221 223 223 223 226 228 229 232 233 232 232 234 235 234 233 233 234 235 234 232 232 232 232 231 233 235 235 235 239 241 242 244 246 248 247 245
231 253 242 219 220 219 214 221 235 237 239 235 222 219 223 225 228 227 214 208 209 210 213 216 218 215 210 212 214 212 209 206 203 202 201 198 198 199 199 199 197 198 199 198 200 205 209 215 219 219 218 216 215 214 214 215 216 218 219 220 220 221 222 223 222 223 226 228 230 231 232 232 232 233 233 232 230 230 232 233 232 232 232 233 234 234 236 237 235 236 239 240 241 245 249 249 247
211 225 231 227 221 221 221 220 226 235 242 241 229 223 222 216 222 227 220 207 206 209 211 210 213 216 211 209 213 212 207 205 203 202 200 198 199 200 200 201 198 196 196 195 197 201 204 208 213 217 217 216 215 215 215 216 216 217 219 220 220 220 221 222 222 223 225 227 228 229 231 231 231 232 232 231 229 228 230 231 232 232 232 233 234 234 236 238 238 237 237 239 240 242 246 249 249
232 220 217 221 222 219 221 222 221 226 236 239 238 238 225 166 184 214 215 213 213 212 216 211 207 212 211 209 213 211 206 205 204 202 201 199 200 200 199 199 196 193 193 194 196 198 200 202 208 212 213 213 214 215 216 217 216 218 219 219 219 220 220 220 221 223 224 225 227 228 229 229 230 230 230 230 229 228 228 229 230 231 230 231 233 234 234 236 238 239 238 238 240 242 244 248 250